Regional Weather Roundup
Issued by NWS Kansas City/Pleasant Hill, MO

Home | Current Version | Previous Version | Graphics & Text | Print | Product List | Glossary Off
Versions: 1 2 3 4 5 6 7 8 9 10 11 12 13 14 15 16 17 18 19 20 21 22 23 24 25 26 27 28 29 30 31 32 33 34 35 36 37 38 39 40 41 42 43 44 45 46 47 48 49 50

000
ASUS43 KEAX 031810
RWREAX

WEATHER ROUNDUP FOR EASTERN KANSAS AND NORTHWEST MISSOURI
NATIONAL WEATHER SERVICE KANSAS CITY/PLEASANT HILL MO
100 PM CDT MON AUG 03 2015

KSZ040-057-103>105-MOZ028-029-037-043-031900-
...KANSAS CITY METROPOLITAN AREA...

CITY           SKY/WX    TMP DP  RH WIND       PRES   REMARKS
K.C. INTL      PTSUNNY   81  69  67 NE17      29.98R
6HR MIN TEMP:  69; 6HR MAX TEMP:  87;

K.C. DOWNTOWN  MOSUNNY   91  71  51 N8        29.94R HX  97
6HR MIN TEMP:  74; 6HR MAX TEMP:  91;

LEES SUMMIT    SUNNY     89  71  55 VRB6      29.97R HX  95
6HR MIN TEMP:  69; 6HR MAX TEMP:  90;

OLATHE - IXD   SUNNY     89  68  49 W8        29.96R HX  93
6HR MIN TEMP:  69; 6HR MAX TEMP:  90;

OLATHE - OJC   SUNNY     89  68  49 W9        29.96R HX  93
6HR MIN TEMP:  68; 6HR MAX TEMP:  90;

LAWRENCE       MOSUNNY   90  70  51 NW5       29.94R HX  95

$$

MOZ001>008-011>017-020>025-030>033-038>040-044>046-053-054-031900-
...NORTHERN AND CENTRAL MISSOURI...

CITY           SKY/WX    TMP DP  RH WIND       PRES   REMARKS
ST. JOSEPH     CLOUDY    78  70  76 E9        29.95F
6HR MIN TEMP:  72; 6HR MAX TEMP:  80; 6HR PCP: TRACE;

MOSBY          MOCLDY    75  64  69 NE7       29.98S
WARRENSBURG    SUNNY     84  68  58 CALM      29.96R
WHITEMAN AFB   MOSUNNY   85  68  57 VRB3      29.96R
6HR MIN TEMP:  71; 6HR MAX TEMP:  85;

CLINTON        SUNNY     90  72  55 W5        29.96R HX  96
SEDALIA        SUNNY     85  66  53 CALM      29.98R
6HR MIN TEMP:  74; 6HR MAX TEMP:  85;

WARSAW         NOT AVBL
CHILLICOTHE      N/A     74  66  76 E3        29.97F
6HR MIN TEMP:  72; 6HR MAX TEMP:  81;

KIRKSVILLE     MOSUNNY   82  58  43 VRB3      29.97S
6HR MIN TEMP:  67; 6HR MAX TEMP:  82; 6HR PCP: TRACE;


$$

MOZ041-047>049-056>058-063>065-088>090-097-031900-
...EASTERN AND SOUTHERN MISSOURI...

CITY           SKY/WX    TMP DP  RH WIND       PRES   REMARKS
ST. LOUIS INTL MOSUNNY   92  64  39 NW7       29.92R HX  93
6HR MIN TEMP:  77; 6HR MAX TEMP:  92;

SPIRIT OF STL  MOSUNNY   90  68  48 NW8       29.90S HX  94
COLUMBIA       MOSUNNY   86  67  52 NW10      29.97R
JEFFERSON CITY MOSUNNY   87  67  51 W7        29.94R HX  90
ROLLA          MOSUNNY   88  69  53 W13       29.94S HX  92
OSAGE BEACH    SUNNY     88  66  48 W8        29.96R HX  90
SPRINGFIELD    MOSUNNY   90  63  40 W6        29.97F HX  91
BRANSON        CLOUDY    90  64  43 NW8       30.00F HX  91
JOPLIN         MOSUNNY   93  65  39 SW13      29.96F HX  95
WEST PLAINS    SUNNY     90  64  42 W12       29.99F HX  91

$$

IAZ060-094-KSZ022-034>040-054-083-096-NEZ052-066-093-031900-
...KANSAS...SOUTHEAST NEBRASKA AND IOWA...

CITY           SKY/WX    TMP DP  RH WIND       PRES   REMARKS
TOPEKA         MOSUNNY   90  70  51 VRB3      29.94R HX  95
6HR MIN TEMP:  72; 6HR MAX TEMP:  91;

MANHATTAN      SUNNY     92  68  45 CALM      29.92F HX  96
EMPORIA        SUNNY     90  68  48 W8        29.94F HX  94
CHANUTE        MOSUNNY   91  65  41 SW7       29.94F HX  93
WICHITA        PTSUNNY   89  70  53 SW10      29.93F HX  94
OMAHA          LGT RAIN  77  62  59 CALM      29.97F
LINCOLN        PTSUNNY   79  64  60 N12       29.99R
FALLS CITY     MOSUNNY   78  71  79 VRB3      29.96R
LAMONI         LGT RAIN  77  61  57 VRB3      29.98F
DES MOINES     MOSUNNY   81  55  40 VRB6      29.95F

$$




USA.gov is the U.S. government's official web portal to all federal, state and local government web resources and services.